DateTimeUTC,F1_A11,F1_S11,BsB_S11,BsG_S11,BsR_S11,BbsB_S11,BbsG_S11,BbsR_S11,BaB_A11,BaG_A11,BaR_A11,Tu_S11,T_S11,Uu_S11,U_S11,P_S11,T1_A11
2021-06-30T23:00:00Z,00000200,20000000,,,,,,,-000.12,0000.18,-000.25,18.8,25.6,06.2,04.1,0667.5,31.1
2021-06-30T23:01:00Z,00000200,20000000,,,,,,,-000.02,-000.18,0000.25,18.7,25.5,06.2,04.1,0667.5,31.1
2021-06-30T23:02:00Z,00000200,20000000,,,,,,,0000.30,-000.06,-000.18,18.7,25.5,06.2,04.1,0667.5,31.1
2021-06-30T23:03:00Z,00000200,60000000,,,,,,,0000.11,0000.12,0000.25,18.7,25.5,06.2,04.1,0667.5,31.1
2021-06-30T23:04:00Z,00000200,40000000,0000.70,0000.09,-000.06,0000.05,0000.20,0000.28,0000.12,0000.42,0000.09,18.7,25.2,06.2,04.2,0668.4,31.0
2021-06-30T23:05:00Z,00000200,00000000,0000.29,0000.25,0000.06,0000.18,-000.03,0000.35,-000.14,-000.47,-000.19,18.6,25.1,06.3,04.2,0668.5,31.0
2021-06-30T23:06:00Z,00000200,00000000,0000.68,0000.04,0000.18,0000.51,-000.01,0000.22,0000.24,-000.04,0000.07,18.6,25.1,06.3,04.3,0668.6,31.0
2021-06-30T23:07:00Z,00000200,00000000,0001.16,0000.10,0000.13,0000.20,0000.02,0000.21,-000.44,0000.26,0000.08,18.5,25.1,06.4,04.3,0668.6,31.0
2021-06-30T23:08:00Z,00000200,00000000,0000.55,0000.33,0000.06,-000.10,0000.28,0000.12,0000.29,0000.32,0000.25,18.5,25.0,06.5,04.4,0668.5,31.0
2021-06-30T23:09:00Z,00000200,00000000,0000.91,0000.12,0000.29,0000.29,0000.06,0000.05,-000.21,-000.03,-000.41,18.6,25.0,06.5,04.4,0668.5,31.1
2021-06-30T23:10:00Z,00000200,00000000,0000.80,0000.08,0000.04,0000.12,0000.09,0000.31,0000.54,-000.22,0000.25,18.6,25.1,06.5,04.4,0668.5,31.1
2021-06-30T23:11:00Z,00000200,00000000,0000.25,0000.40,-000.11,-000.10,0000.16,0000.22,-000.24,0000.18,0000.08,18.7,25.1,06.5,04.4,0668.6,31.1
2021-06-30T23:12:00Z,00000200,00000000,0000.28,0000.21,-000.04,-000.19,-000.19,0000.40,0000.11,0000.01,0000.03,18.8,25.1,06.4,04.3,0668.6,31.1
2021-06-30T23:13:00Z,00000200,00000000,0000.17,0000.18,0000.04,0000.45,0000.13,0000.41,-000.04,0000.24,0000.31,18.9,25.2,06.3,04.3,0668.6,31.1
2021-06-30T23:14:00Z,00000200,00000000,0001.11,0000.70,0000.06,0000.05,0000.03,0000.29,0000.02,0000.06,-000.06,19.0,25.2,06.3,04.3,0668.7,31.1
2021-06-30T23:15:00Z,00000200,00000000,0000.61,0000.15,0000.03,0000.18,0000.21,0000.22,-000.03,-000.11,-000.15,19.1,25.3,06.3,04.3,0668.6,31.2
2021-06-30T23:16:00Z,00000200,00000000,0000.95,0000.28,0000.01,0000.09,0000.21,0000.45,0000.37,0000.24,0000.34,19.2,25.3,06.2,04.3,0668.7,31.2
2021-06-30T23:17:00Z,00000200,00000000,0000.64,0000.15,0000.50,-000.18,0000.03,0000.38,-000.30,-000.13,-000.11,19.2,25.4,06.3,04.3,0668.7,31.2
2021-06-30T23:18:00Z,00000200,00000000,0000.31,0000.29,-000.28,0000.35,0000.15,0000.24,0000.07,0000.11,-000.04,19.2,25.4,06.2,04.2,0668.7,31.2
2021-06-30T23:19:00Z,00000200,00000000,0001.28,0000.14,0000.34,0000.31,0000.01,0000.26,-000.03,-000.18,-000.15,19.2,25.3,06.2,04.2,0668.7,31.2
2021-06-30T23:20:00Z,00000200,00000000,0000.65,0000.11,0000.01,0000.23,0000.01,0000.41,0000.01,-000.11,0000.10,19.1,25.3,06.2,04.2,0668.7,31.1
2021-06-30T23:21:00Z,00000200,00000000,0000.46,0000.00,0000.21,0000.10,0000.05,0000.24,0000.15,0000.11,0000.01,19.1,25.3,06.2,04.2,0668.7,31.1
2021-06-30T23:22:00Z,00000200,00000000,0000.10,0000.58,0000.26,0000.32,0000.20,0000.49,0000.11,0000.14,-000.04,19.0,25.3,06.3,04.3,0668.8,31.1
2021-06-30T23:23:00Z,00000200,00000000,0000.39,0000.20,0000.49,0000.23,0000.13,0000.30,0000.08,0000.19,-000.15,19.0,25.2,06.3,04.3,0668.7,31.1
2021-06-30T23:24:00Z,00000200,00000000,0000.86,0000.00,0000.25,0000.08,0000.13,0000.36,-000.21,0000.04,0000.27,19.0,25.2,06.3,04.3,0668.7,31.1
2021-06-30T23:25:00Z,00000200,00000000,0001.05,-000.08,-000.01,0000.30,0000.23,0000.35,0000.29,0000.20,0000.29,19.0,25.2,06.3,04.3,0668.8,31.1
2021-06-30T23:26:00Z,00000200,00000000,0000.50,0000.24,0000.11,-000.14,0000.36,0000.32,0000.01,-000.31,-000.02,19.1,25.3,06.3,04.3,0668.8,31.1
2021-06-30T23:27:00Z,00000200,00000000,0000.66,0000.14,0000.09,-000.16,0000.12,0000.26,-000.01,0000.16,-000.27,19.2,25.4,06.2,04.3,0668.8,31.2
2021-06-30T23:28:00Z,00000200,00000000,0000.90,0000.18,0000.40,-000.04,0000.29,0000.45,-000.16,0000.12,0000.39,19.3,25.4,06.2,04.3,0668.8,31.2
2021-06-30T23:29:00Z,00000200,00000000,0000.75,0000.21,-000.13,-000.38,0000.05,0000.13,0000.23,-000.31,-000.08,19.4,25.4,06.2,04.3,0668.8,31.2
2021-06-30T23:30:00Z,00000200,00000000,0000.79,0000.37,0000.03,-000.47,0000.03,0000.34,0000.16,0000.14,-000.11,19.4,25.5,06.2,04.3,0668.9,31.2
2021-06-30T23:31:00Z,00000200,00000000,0000.66,0000.09,0000.16,0000.24,0000.08,0000.30,-000.27,0000.08,-000.29,19.5,25.5,06.2,04.3,0668.8,31.2
2021-06-30T23:32:00Z,00000200,00000000,0000.67,0000.05,0000.03,-000.14,-000.00,0000.15,0000.26,-000.08,0000.49,19.4,25.6,06.2,04.2,0668.8,31.2
2021-06-30T23:33:00Z,00000200,00000000,0000.65,0000.57,-000.07,-000.82,0000.16,0000.12,-000.07,0000.20,-000.19,19.4,25.5,06.1,04.2,0668.8,31.2
2021-06-30T23:34:00Z,00000200,00000000,-000.23,0000.22,-000.06,-000.31,0000.02,0000.08,0000.02,0000.26,0000.18,19.3,25.5,06.2,04.3,0668.8,31.1
2021-06-30T23:35:00Z,00000200,00000000,0000.43,0000.21,0000.47,-000.45,0000.27,0000.48,0000.11,-000.32,-000.28,19.3,25.4,06.3,04.3,0668.8,31.1
2021-06-30T23:36:00Z,00000200,00000000,0000.54,0000.26,0000.08,-000.05,-000.02,0000.21,0000.11,0000.29,0000.12,19.2,25.4,06.1,04.2,0668.8,31.1
2021-06-30T23:37:00Z,00000200,00000000,0000.44,0000.50,0000.27,0000.41,0000.10,0000.42,-000.14,-000.29,0000.08,19.2,25.4,06.2,04.3,0668.8,31.1
2021-06-30T23:38:00Z,00000200,00000000,0001.04,0000.21,0000.13,-000.46,0000.11,0000.49,-000.08,-000.07,-000.00,19.1,25.4,06.3,04.3,0668.8,31.1
2021-06-30T23:39:00Z,00000200,00000000,0000.03,0000.19,0000.23,0000.13,0000.05,0000.43,0000.19,0000.14,0000.36,19.1,25.4,06.3,04.3,0668.8,31.1
2021-06-30T23:40:00Z,00000200,00000000,0000.53,0000.40,-000.00,-000.17,0000.16,0000.20,0000.14,0000.20,0000.06,19.2,25.4,06.2,04.3,0668.8,31.1
2021-06-30T23:41:00Z,00000200,00000000,0000.48,-000.04,0000.07,-000.06,0000.24,0000.41,-000.36,-000.02,-000.44,19.2,25.4,06.3,04.3,0668.8,31.2
2021-06-30T23:42:00Z,00000200,00000000,0001.07,0000.24,0000.03,0000.05,0000.28,0000.19,0000.48,-000.02,0000.26,19.3,25.4,06.2,04.3,0668.8,31.1
2021-06-30T23:43:00Z,00000200,00000000,0000.16,0000.14,-000.10,-000.08,0000.13,0000.35,-000.09,-000.18,-000.09,19.3,25.4,06.1,04.2,0668.8,31.1
2021-06-30T23:44:00Z,00000200,00000000,0000.26,0000.36,0000.04,0000.15,0000.20,0000.60,-000.18,0000.21,0000.16,19.2,25.5,06.2,04.2,0668.8,31.1
2021-06-30T23:45:00Z,00000200,00000000,0000.96,0000.15,0000.18,-000.57,0000.09,0000.48,-000.19,-000.19,0000.18,19.2,25.4,06.2,04.2,0668.7,31.1
2021-06-30T23:46:00Z,00000200,00000000,0000.70,0000.75,0000.43,-000.30,0000.11,0000.35,0000.57,0000.26,-000.44,19.2,25.4,06.2,04.3,0668.7,31.1
2021-06-30T23:47:00Z,00000200,00000000,0000.87,0000.37,-000.01,0000.54,0000.18,0000.34,-000.34,-000.26,0000.15,19.1,25.3,06.1,04.2,0668.6,31.1
2021-06-30T23:48:00Z,00000200,00000000,-000.64,0000.37,-000.18,-000.11,0000.05,0000.09,-000.05,0000.02,0000.02,19.0,25.3,06.1,04.1,0668.6,31.1
2021-06-30T23:49:00Z,00000200,00000000,0000.70,0000.23,0000.16,0000.13,0000.25,0000.24,-000.05,-000.05,-000.10,19.0,25.3,06.0,04.1,0668.6,31.1
2021-06-30T23:50:00Z,00000200,00000000,0000.46,0000.47,0000.15,0000.30,0000.29,0000.37,-000.03,0000.21,0000.12,18.9,25.2,06.0,04.1,0668.7,31.1
2021-06-30T23:51:00Z,00000200,00000000,0000.78,0000.22,0000.63,-000.22,0000.31,0000.24,0000.13,-000.11,-000.03,18.9,25.2,06.1,04.1,0668.7,31.1
2021-06-30T23:52:00Z,00000200,00000000,-000.24,0000.37,0000.49,0000.21,0000.11,0000.54,0000.06,0000.00,-000.13,18.8,25.2,06.1,04.1,0668.7,31.0
2021-06-30T23:53:00Z,00000200,00000000,0000.78,0000.15,-000.14,0000.24,0000.01,0000.48,-000.17,-000.12,-000.08,18.8,25.1,06.1,04.1,0668.7,31.1
2021-06-30T23:54:00Z,00000200,00000000,0001.06,0000.64,0000.30,0000.14,0000.11,0000.27,0000.05,-000.08,0000.23,18.8,25.1,06.1,04.2,0668.7,31.1
2021-06-30T23:55:00Z,00000200,00000000,0000.64,0000.23,-000.25,-000.07,0000.19,0000.18,-000.02,0000.29,0000.11,18.9,25.2,06.0,04.1,0668.7,31.1
2021-06-30T23:56:00Z,00000200,00000000,0000.44,0000.35,-000.16,0000.29,0000.28,-000.08,-000.14,-000.08,0000.05,18.9,25.2,06.0,04.1,0668.7,31.1
2021-06-30T23:57:00Z,00000200,40000000,,,,,,,0000.27,0000.26,0000.01,19.0,25.2,05.7,03.9,0668.7,31.1
2021-06-30T23:58:00Z,00000200,60000000,,,,,,,-000.00,-000.45,-000.10,18.8,25.4,05.9,03.9,0667.8,31.1
2021-06-30T23:59:00Z,00000200,20000000,,,,,,,-000.01,0000.07,-000.36,18.8,25.5,05.9,03.9,0667.8,31.1
